Location: Columbia
(38.9520°N, 92.3340°W)
Time: 06:38:46
(UTC-05:00)

Iridium 52 - Visible Passes

Search period start: 21 April 2015 00:00
Search period end: 01 May 2015 00:00
Orbit: 776 x 779 km, 86.4° (Epoch: 20 April)

Date Brightness Start Highest point End Pass type
(mag) Time Alt. Az. Time Alt. Az. Time Alt. Az.
21 Apr 8.7 21:21:22 10° NW 21:25:04 19° W 21:28:36 10° SW visible
22 Apr 7.8 20:46:59 10° NNW 20:51:44 35° W 20:56:24 10° SSW visible
23 Apr 6.5 20:13:07 10° N 20:18:18 67° W 20:23:28 10° S visible
24 Apr 9.1 21:22:29 10° NW 21:25:00 13° W 21:27:12 10° WSW visible
25 Apr 8.5 20:47:29 10° NNW 20:51:42 25° W 20:55:47 10° SW visible
28 Apr 9.0 20:48:15 10° NW 20:51:38 17° W 20:54:48 10° WSW visible
